Change the Weather History Date:

Friday, November 2, 2012

  Actual Average Record
Temperature  
Mean Temperature 30 °F -  
Max Temperature 44 °F 50 °F 74 °F (1953)
Min Temperature 17 °F 33 °F 8 °F (1951)
Degree Days  
Heating Degree Days 34    
Moisture  
Dew Point 22 °F    
Average Humidity 75    
Maximum Humidity 100    
Minimum Humidity 37    
Precipitation  
Precipitation 0.00 in - - ()
Sea Level Pressure  
Sea Level Pressure 30.10 in    
Wind  
Wind Speed 1 mph (NE)    
Max Wind Speed 7 mph    
Max Gust Speed -    
Visibility 10 miles    
Events      
Averages and records for this station are not official NWS values.
T = Trace of Precipitation, MM = Missing Value Source: NWS Daily Summary

Daily Weather History Graph

Daily Weather History Graph

Search for Another Location

Airport or City:

Trip Planner

Search our weather history database for the weather conditions in past years. The results will help you decide how hot, cold, wet, or windy it might be!

Date:

Astronomy

Nov. 02, 2012 Rise Set
Actual Time 7:41 AM CDT 5:51 PM CDT
Civil Twilight 7:11 AM CDT 6:21 PM CDT
Nautical Twilight 6:36 AM CDT 6:55 PM CDT
Astronomical Twilight 6:03 AM CDT 7:28 PM CDT
Moon 8:34 PM CDT (11/2) 11:06 AM CDT (11/2)
Length of Visible Light 11h 10m
Length of Day
10h 09m
Waning Gibbous, 87% of the Moon is Illuminated
Nov 2
Waning Gibbous
Nov 6
Last Quarter
Nov 13
New
Nov 20
First Quarter
Nov 28
Full

Hourly Weather History & Observations

Time (CDT) Temp. Windchill Dew Point Humidity Pressure Visibility Wind Dir Wind Speed Gust Speed Precip Events Conditions
12:15 AM 24.8 °F - 23.0 °F 93% 30.02 in 10.0 mi Calm Calm - N/A   Clear
12:35 AM 26.6 °F - 23.0 °F 86% 30.03 in 10.0 mi Calm Calm - N/A   Clear
12:55 AM 24.8 °F - 23.0 °F 93% 30.03 in 10.0 mi Calm Calm - N/A   Clear
1:15 AM 24.8 °F - 23.0 °F 93% 30.03 in 10.0 mi Calm Calm - N/A   Clear
1:35 AM 23.0 °F - 23.0 °F 100% 30.03 in 10.0 mi Calm Calm - N/A   Clear
1:55 AM 23.0 °F - 23.0 °F 100% 30.04 in 10.0 mi Calm Calm - N/A   Clear
2:15 AM 23.0 °F - 23.0 °F 100% 30.04 in 10.0 mi Calm Calm - N/A   Clear
2:35 AM 21.2 °F - 21.2 °F 100% 30.04 in 10.0 mi Calm Calm - N/A   Clear
2:55 AM 21.2 °F - 21.2 °F 100% 30.05 in 10.0 mi Calm Calm - N/A   Clear
3:15 AM 21.2 °F - 19.4 °F 93% 30.05 in 10.0 mi Calm Calm - N/A   Clear
3:35 AM 21.2 °F - 21.2 °F 100% 30.06 in 10.0 mi Calm Calm - N/A   Clear
3:55 AM 21.2 °F - 21.2 °F 100% 30.06 in 10.0 mi Calm Calm - N/A   Clear
4:15 AM 19.4 °F - 19.4 °F 100% 30.05 in 10.0 mi Calm Calm - N/A   Clear
4:35 AM 19.4 °F - 19.4 °F 100% 30.06 in 10.0 mi Calm Calm - N/A   Clear
4:55 AM 19.4 °F - 19.4 °F 100% 30.06 in 10.0 mi Calm Calm - N/A   Clear
5:15 AM 19.4 °F - 19.4 °F 100% 30.06 in 10.0 mi Calm Calm - N/A   Clear
5:35 AM 19.4 °F - 19.4 °F 100% 30.07 in 10.0 mi Calm Calm - N/A   Clear
5:55 AM 17.6 °F - 17.6 °F 100% 30.07 in 10.0 mi Calm Calm - N/A   Clear
6:15 AM 17.6 °F - 17.6 °F 100% 30.08 in 10.0 mi Calm Calm - N/A   Clear
6:35 AM 17.6 °F - 17.6 °F 100% 30.09 in 10.0 mi Calm Calm - N/A   Clear
6:55 AM 17.6 °F - 15.8 °F 93% 30.10 in 10.0 mi Calm Calm - N/A   Clear
7:15 AM 17.6 °F - 15.8 °F 93% 30.09 in 10.0 mi Calm Calm - N/A   Clear
7:35 AM 17.6 °F - 15.8 °F 93% 30.10 in 10.0 mi Calm Calm - N/A   Clear
7:55 AM 17.6 °F 12.3 °F 14.0 °F 86% 30.10 in 10.0 mi ESE 3.5 mph - N/A   Clear
8:15 AM 19.4 °F - 17.6 °F 93% 30.10 in 10.0 mi Calm Calm - N/A   Clear
8:35 AM 21.2 °F - 19.4 °F 93% 30.10 in 10.0 mi Calm Calm - N/A   Clear
8:55 AM 23.0 °F - 23.0 °F 100% 30.11 in 10.0 mi Calm Calm - N/A   Clear
9:15 AM 26.6 °F - 23.0 °F 86% 30.12 in 10.0 mi Calm Calm - N/A   Clear
9:35 AM 28.4 °F - 26.6 °F 93% 30.12 in 10.0 mi Calm Calm - N/A   Clear
9:55 AM 32.0 °F - 26.6 °F 80% 30.13 in 10.0 mi Calm Calm - N/A   Clear
10:15 AM 32.0 °F - 26.6 °F 80% 30.13 in 10.0 mi Calm Calm - N/A   Clear
10:35 AM 35.6 °F 31.7 °F 26.6 °F 70% 30.13 in 10.0 mi NNE 4.6 mph - N/A   Clear
10:55 AM 35.6 °F 29.9 °F 26.6 °F 70% 30.13 in 10.0 mi North 6.9 mph - N/A   Clear
11:15 AM 37.4 °F 34.9 °F 26.6 °F 65% 30.14 in 10.0 mi NE 3.5 mph - N/A   Clear
11:35 AM 37.4 °F 34.9 °F 26.6 °F 65% 30.14 in 10.0 mi NE 3.5 mph - N/A   Clear
11:55 AM 39.2 °F - 24.8 °F 56% 30.13 in 10.0 mi Calm Calm - N/A   Clear
12:15 PM 41.0 °F 38.0 °F 23.0 °F 49% 30.13 in 10.0 mi NE 4.6 mph - N/A   Clear
12:35 PM 41.0 °F 38.0 °F 23.0 °F 49% 30.13 in 10.0 mi NE 4.6 mph - N/A   Clear
12:55 PM 41.0 °F 37.1 °F 21.2 °F 45% - 10.0 mi NE 5.8 mph - N/A   Clear
1:15 PM 42.8 °F 39.3 °F 19.4 °F 39% 30.12 in 10.0 mi NNE 5.8 mph - N/A   Clear
1:35 PM 42.8 °F - 21.2 °F 42% 30.12 in 10.0 mi Calm Calm - N/A   Clear
1:55 PM 42.8 °F 41.1 °F 21.2 °F 42% 30.12 in 10.0 mi NE 3.5 mph - N/A   Clear
2:15 PM 42.8 °F 40.1 °F 21.2 °F 42% 30.11 in 10.0 mi NE 4.6 mph - N/A   Clear
2:35 PM 42.8 °F - 21.2 °F 42% 30.11 in 10.0 mi Calm Calm - N/A   Clear
2:55 PM 42.8 °F 41.1 °F 21.2 °F 42% 30.10 in 10.0 mi North 3.5 mph - N/A   Clear
3:15 PM 44.6 °F - 21.2 °F 39% 30.10 in 10.0 mi Calm Calm - N/A   Clear
3:35 PM 44.6 °F - 21.2 °F 39% 30.10 in 10.0 mi Calm Calm - N/A   Clear
3:55 PM 42.8 °F 41.1 °F 19.4 °F 39% 30.10 in 10.0 mi NE 3.5 mph - N/A   Clear
4:15 PM 44.6 °F 42.2 °F 19.4 °F 37% 30.10 in 10.0 mi NW 4.6 mph - N/A   Clear
4:35 PM 44.6 °F 42.2 °F 19.4 °F 37% 30.10 in 10.0 mi NE 4.6 mph - N/A   Clear
4:55 PM 42.8 °F - 19.4 °F 39% 30.10 in 10.0 mi Calm Calm - N/A   Clear
5:15 PM 41.0 °F - 21.2 °F 45% 30.10 in 10.0 mi Calm Calm - N/A   Clear
5:35 PM 37.4 °F - 23.0 °F 56% 30.10 in 10.0 mi Calm Calm - N/A   Clear
5:55 PM 37.4 °F - 23.0 °F 56% 30.10 in 10.0 mi Calm Calm - N/A   Clear
6:15 PM 33.8 °F - 23.0 °F 65% 30.10 in 10.0 mi Calm Calm - N/A   Clear
6:35 PM 32.0 °F - 23.0 °F 69% 30.10 in 10.0 mi Calm Calm - N/A   Clear
6:55 PM 32.0 °F - 23.0 °F 69% 30.11 in 10.0 mi Calm Calm - N/A   Clear
7:15 PM 32.0 °F - 23.0 °F 69% 30.12 in 10.0 mi Calm Calm - N/A   Clear
7:35 PM 32.0 °F - 23.0 °F 69% 30.12 in 10.0 mi Calm Calm - N/A   Clear
7:55 PM 32.0 °F - 23.0 °F 69% 30.13 in 10.0 mi Calm Calm - N/A   Clear
8:15 PM 32.0 °F - 24.8 °F 75% 30.14 in 10.0 mi Calm Calm - N/A   Clear
8:35 PM 32.0 °F - 24.8 °F 75% 30.14 in 10.0 mi Calm Calm - N/A   Clear
8:55 PM 32.0 °F 28.7 °F 24.8 °F 75% 30.14 in 10.0 mi ENE 3.5 mph - N/A   Clear
9:15 PM 32.0 °F - 23.0 °F 69% 30.14 in 10.0 mi Calm Calm - N/A   Clear
9:35 PM 32.0 °F - 23.0 °F 69% 30.14 in 10.0 mi Calm Calm - N/A   Scattered Clouds
9:55 PM 32.0 °F - 24.8 °F 75% 30.15 in 10.0 mi Calm Calm - N/A   Scattered Clouds
10:15 PM 32.0 °F - 24.8 °F 75% 30.16 in 10.0 mi Calm Calm - N/A   Scattered Clouds
10:35 PM 32.0 °F - 24.8 °F 75% 30.16 in 10.0 mi Calm Calm - N/A   Clear
10:55 PM 32.0 °F - 26.6 °F 80% 30.16 in 10.0 mi Calm Calm - N/A   Scattered Clouds
11:15 PM 32.0 °F - 26.6 °F 80% 30.16 in 10.0 mi Calm Calm - N/A   Scattered Clouds
11:35 PM 32.0 °F - 26.6 °F 80% 30.16 in 10.0 mi Calm Calm - N/A   Scattered Clouds
11:55 PM 32.0 °F - 26.6 °F 80% 30.16 in 10.0 mi Calm Calm - N/A   Scattered Clouds